Regional Weather Roundup
Issued by NWS

Home | Current Version | Previous Version | Text Only | Print | Product List | Glossary On
Versions: 1 2 3 4 5 6 7 8 9 10 11 12 13 14 15 16 17 18 19 20 21 22 23 24 25 26 27 28 29 30 31 32 33 34 35 36 37 38 39 40 41 42 43 44 45 46 47 48 49 50
000
ASUS43 KBIS 250420
RWRND

NORTH DAKOTA REGIONAL WEATHER ROUNDUP
NATIONAL WEATHER SERVICE BISMARCK ND
1100 PM CDT FRI OCT 24 2014

NOTE: "FAIR" INDICATES FEW OR NO CLOUDS BELOW 12,000 FEET WITH NO
SIGNIFICANT WEATHER AND/OR OBSTRUCTIONS TO VISIBILITY.


NDZ001>003-009>011-017-250500-
NORTHWEST NORTH DAKOTA

CITY           SKY/WX    TMP DP  RH WIND       PRES   REMARKS
WILLISTON      PTCLDY    45  26  47 W12       30.05R
MINOT          CLEAR     47  29  49 SW9       29.99R
MINOT AFB      CLEAR     43  31  62 W13       29.99R
$$

NDZ018>021-031>035-040>046-250500-
SOUTHWEST NORTH DAKOTA

CITY           SKY/WX    TMP DP  RH WIND       PRES   REMARKS
BISMARCK       PTCLDY    48  32  53 W12       30.05R
DICKINSON      CLOUDY    45  32  60 W6        30.06R
GARRISON         N/A     49  29  46 NW12      30.01R
HETTINGER ARPT CLOUDY    47  35  63 W3        30.10R
$$

NDZ004>008-012>016-024-026-027-054-250500-
NORTHEAST NORTH DAKOTA

CITY           SKY/WX    TMP DP  RH WIND       PRES   REMARKS
GRAND FORKS    CLEAR     52  35  52 W12       29.89R
GRND FRKS AFB  CLEAR     52  35  52 NW10      29.91R
DEVILS LAKE    CLEAR     48  30  49 W12       29.94R
$$

NDZ022-023-025-028>030-036>039-047>053-250500-
SOUTHEAST NORTH DAKOTA

CITY           SKY/WX    TMP DP  RH WIND       PRES   REMARKS
FARGO          PTCLDY    50  32  50 W10       29.93R
JAMESTOWN      PTCLDY    49  34  56 W12       29.98R
$$




USA.gov is the U.S. government's official web portal to all federal, state and local government web resources and services.